Regional Weather Roundup
Issued by NWS Sioux Falls, SD

Home | Current Version | Previous Version | Graphics & Text | Print | Product List | Glossary Off
Versions: 1 2 3 4 5 6 7 8 9 10 11 12 13 14 15 16 17 18 19 20 21 22 23 24 25 26 27 28 29 30 31 32 33 34 35 36 37 38 39 40 41 42 43 44 45 46 47 48 49 50

579
ASUS43 KFSD 120602
RWRFSD

WEATHER ROUNDUP FOR SE SOUTH DAKOTA/SW MINNESOTA/NW IOWA
NATIONAL WEATHER SERVICE SIOUX FALLS SD
1200 AM CST TUE DEC 12 2017

NOTE: "FAIR" INDICATES FEW OR NO CLOUDS BELOW 12,000 FEET WITH NO
SIGNIFICANT WEATHER AND OR OBSTRUCTIONS TO VISIBILITY.


SDZ038>040-050-052>070-120700-
SOUTHEAST SOUTH DAKOTA

CITY           SKY/WX    TMP DP  RH WIND       PRES   REMARKS
BROOKINGS      CLEAR     14  11  87 NW5       30.32F WCI   6
CHAMBERLAIN    CLEAR     21  21  99 CALM      30.37F
6HR MIN TEMP:  20; 6HR MAX TEMP:  37;

HURON          CLEAR     14  12  92 W7        30.37F WCI   4
6HR MIN TEMP:  13; 6HR MAX TEMP:  25;

MADISON        FAIR      14  14 100 NW7       30.32F WCI   4
MITCHELL       CLEAR     17  14  88 NW8       30.40S WCI   7
6HR MIN TEMP:  17; 6HR MAX TEMP:  30;

SIOUX FALLS    CLEAR     15  12  88 W3        30.34S
6HR MIN TEMP:  15; 6HR MAX TEMP:  28;

WINNER         CLOUDY    32  28  85 VRB3      30.37S
YANKTON        CLEAR     17  14  88 NW7       30.38S WCI   8
$$

MNZ071-072-080-081-089-090-097-098-120700-
SOUTHWEST MINNESOTA

CITY           SKY/WX    TMP DP  RH WIND       PRES   REMARKS
FAIRMONT       CLEAR     13   8  81 NW18      30.27R WCI  -4
JACKSON        PTCLDY    14   9  79 MISG      30.27S
LUVERNE        CLEAR     18  10  73 N6        30.34S WCI   9
MARSHALL       CLEAR     11   9  92 NW10      30.33F WCI  -3
6HR MIN TEMP:  11; 6HR MAX TEMP:  20;

MONTEVIDEO     CLEAR     10   7  85 N10       30.32F WCI  -3
PIPESTONE      CLEAR     16  10  79 N8        30.30F WCI   5
REDWOOD FALLS  CLEAR     13   3  64 NW12G21   30.29F WCI  -1
TRACY          CLEAR     14  11  89 NW13      30.30F WCI   0
WINDOM           N/A     14   1  57 NW20      30.27S WCI  -3
WORTHINGTON    CLEAR     14  10  84 NW14      30.31R WCI  -1
$$

IAZ001>003-012>014-020>022-031-032-NEZ013-014-SDZ071-120700-
NORTHWEST IOWA

CITY           SKY/WX    TMP DP  RH WIND       PRES   REMARKS
CHEROKEE       CLEAR     17  12  80 N8        30.33S WCI   7
DENISON        CLEAR     19  12  73 N15       30.33R WCI   5
ESTHERVILLE    CLEAR     13   8  81 NW20G28   30.27R WCI  -5
LE MARS        CLEAR     18  14  86 N9        30.35S WCI   6
ORANGE CITY    CLEAR     18  16  93 N13       30.32S WCI   4
SHELDON        CLEAR     16  12  86 N12       30.31S WCI   3
SIOUX CITY     CLEAR     19  13  77 N14       30.37R WCI   6
6HR MIN TEMP:  19; 6HR MAX TEMP:  34;

SPENCER        CLEAR     15   8  73 NW18      30.30R WCI  -2
6HR MIN TEMP:  15; 6HR MAX TEMP:  25;

STORM LAKE     CLEAR     16   9  73 NW16      30.29S WCI   0
$$

ABBREVIATIONS USED IN REMARKS
   TC - TEMPERATURE IN CELSIUS
  WCI - WIND CHILL INDEX
   HX - HEAT INDEX
  VSB - VISIBILITY





USA.gov is the U.S. government's official web portal to all federal, state and local government web resources and services.